Find Starlink 32156

NORAD ID: 60278 Int'l Des: 2024-132 Owner: SPXS Country: US Constellation: starlink operational
LEOCIRCULAR

現在のビュー

3D地球を読み込み中...

About Starlink 32156

Starlink 32156 (NORAD 60278) is a starlink constellation satellite (v2 mini) launched Jul 28, 2024 by SPXS of US. It operates in LEO, CIRCULAR orbit with a mass of 730.00 kg.

Starlink 32156について

説明を読み込み中...

次回通過

Passes for default location (London). Set your location on the main map for personalized predictions.

高度履歴

Loading altitude history...

軌道要素

1 60278U 24132A 26174.57804660 .00000514 00000-0 29458-4 0 9993
2 60278 53.1617 280.5040 0001134 92.2595 267.8536 15.30207006108996
Epoch: Jun 23, 2026 • Age: 35 hours

現在のステータス

高度 483.7 km
速度 7.62 km/s
衛星直下点 -27.43°S, 176.22°W
打ち上げ日 Jul 28, 2024
運用期間 1.9 years
タイプ internet

技術仕様

分類 Payload
質量 730.00 kg
乾燥質量 700.00 kg
総質量 730.00 kg
長さ 0.30 m
直径 4.10 m
スパン 29.00 m
形状 Box + pan
製造者 SPXS
バスタイプ Starlink V2M
フェーズステータス In Orbit
所有者/国 SPXS/US

Most Searched